Time,TemperatureF,DewpointF,PressureIn,WindDirection,WindDirectionDegrees,WindSpeedMPH,WindSpeedGustMPH,Humidity,HourlyPrecipIn,Conditions,Clouds,dailyrainin,SoftwareType,DateUTC
2013-06-29 00:11:00,58.6,56.2,29.42,North,0,0.7,0.7,89,0.00,,,0.27,fowsr,2013-06-28 22:11:00,
2013-06-29 00:41:00,59.2,56.7,29.42,SW,225,0.0,0.7,89,0.00,,,0.27,fowsr,2013-06-28 22:41:00,
2013-06-29 01:11:00,59.5,56.3,29.42,West,270,0.0,0.7,86,0.00,,,0.27,fowsr,2013-06-28 23:11:00,
2013-06-29 01:41:00,59.0,56.0,29.42,SE,135,0.0,0.7,87,0.00,,,0.27,fowsr,2013-06-28 23:41:00,
2013-06-29 02:11:00,59.2,56.7,29.41,SW,225,0.7,1.6,89,0.00,,,0.27,fowsr,2013-06-29 00:11:00,
2013-06-29 02:41:00,59.2,56.2,29.40,NW,315,1.6,3.1,87,0.00,,,0.27,fowsr,2013-06-29 00:41:00,
2013-06-29 03:11:00,58.5,56.2,29.40,ESE,112,0.0,0.0,90,0.00,,,0.27,fowsr,2013-06-29 01:11:00,
2013-06-29 03:41:00,57.7,55.7,29.40,West,270,1.6,2.2,91,0.00,,,0.27,fowsr,2013-06-29 01:41:00,
2013-06-29 04:11:00,57.6,55.6,29.40,NE,45,0.7,1.6,91,0.00,,,0.27,fowsr,2013-06-29 02:11:00,
2013-06-29 04:41:00,57.2,55.0,29.41,NW,315,1.6,3.1,90,0.00,,,0.27,fowsr,2013-06-29 02:41:00,
2013-06-29 05:11:00,57.0,54.8,29.40,NW,315,0.0,0.7,90,0.00,,,0.27,fowsr,2013-06-29 03:11:00,
2013-06-29 05:41:00,59.4,55.4,29.40,NW,315,2.2,3.8,83,0.00,,,0.27,fowsr,2013-06-29 03:41:00,
2013-06-29 06:11:00,60.3,55.8,29.40,West,270,0.0,0.7,81,0.00,,,0.27,fowsr,2013-06-29 04:11:00,
2013-06-29 06:41:00,62.2,56.6,29.41,West,270,3.1,4.5,77,0.00,,,0.27,fowsr,2013-06-29 04:41:00,
2013-06-29 07:11:00,64.6,57.4,29.41,North,0,2.2,3.8,72,0.00,,,0.27,fowsr,2013-06-29 05:11:00,
2013-06-29 07:41:00,65.7,57.6,29.42,SW,225,2.2,3.8,69,0.00,,,0.27,fowsr,2013-06-29 05:41:00,
2013-06-29 08:11:00,65.7,57.6,29.41,West,270,3.8,6.0,69,0.00,,,0.27,fowsr,2013-06-29 06:11:00,
2013-06-29 08:41:00,66.0,57.6,29.42,NW,315,6.0,9.2,68,0.00,,,0.27,fowsr,2013-06-29 06:41:00,
2013-06-29 09:11:00,68.2,57.7,29.41,NW,315,3.1,6.0,62,0.00,,,0.27,fowsr,2013-06-29 07:11:00,
2013-06-29 09:41:00,68.4,57.5,29.41,North,0,5.4,8.3,61,0.00,,,0.27,fowsr,2013-06-29 07:41:00,
2013-06-29 10:11:00,70.0,58.3,29.40,NW,315,6.0,9.8,59,0.00,,,0.27,fowsr,2013-06-29 08:11:00,
2013-06-29 10:41:00,70.7,57.8,29.39,NW,315,9.8,14.5,56,0.00,,,0.27,fowsr,2013-06-29 08:41:00,
2013-06-29 11:11:00,72.1,57.6,29.39,NW,315,7.6,9.2,52,0.00,,,0.27,fowsr,2013-06-29 09:11:00,
2013-06-29 11:41:00,72.9,57.8,29.39,NE,45,3.1,5.4,51,0.00,,,0.27,fowsr,2013-06-29 09:41:00,
2013-06-29 12:11:00,74.8,58.3,29.38,NW,315,4.5,6.9,48,0.00,,,0.27,fowsr,2013-06-29 10:11:00,
2013-06-29 12:41:00,73.9,55.2,29.36,West,270,1.6,3.1,43,0.00,,,0.27,fowsr,2013-06-29 10:41:00,
2013-06-29 13:11:00,76.1,56.1,29.36,NW,315,3.8,5.4,41,0.00,,,0.27,fowsr,2013-06-29 11:11:00,
2013-06-29 13:41:00,77.4,55.0,29.35,NW,315,2.2,4.5,37,0.00,,,0.27,fowsr,2013-06-29 11:41:00,
2013-06-29 14:11:00,76.1,52.2,29.34,SW,225,2.2,3.8,34,0.00,,,0.27,fowsr,2013-06-29 12:11:00,
2013-06-29 14:41:00,76.8,50.3,29.33,WSW,247,5.4,8.3,30,0.00,,,0.27,fowsr,2013-06-29 12:41:00,
2013-06-29 15:11:00,78.1,52.0,29.34,NW,315,4.5,7.6,31,0.00,,,0.27,fowsr,2013-06-29 13:11:00,
2013-06-29 15:41:00,77.5,50.9,29.33,NW,315,5.4,8.3,30,0.00,,,0.27,fowsr,2013-06-29 13:41:00,
2013-06-29 16:11:00,78.6,49.6,29.32,NW,315,6.9,9.8,27,0.00,,,0.21,fowsr,2013-06-29 14:11:00,
2013-06-29 16:41:00,77.7,49.6,29.31,NW,315,4.5,9.2,28,0.00,,,0.01,fowsr,2013-06-29 14:41:00,
2013-06-29 17:11:00,77.9,50.5,29.32,NW,315,11.4,13.0,29,0.00,,,0.00,fowsr,2013-06-29 15:11:00,
2013-06-29 17:41:00,76.6,50.8,29.32,NW,315,6.9,11.4,31,0.00,,,0.00,fowsr,2013-06-29 15:41:00,
2013-06-29 18:11:00,77.2,49.2,29.32,West,270,4.5,6.0,28,0.00,,,0.00,fowsr,2013-06-29 16:11:00,
2013-06-29 18:41:00,77.2,48.4,29.33,North,0,4.5,6.9,27,0.00,,,0.00,fowsr,2013-06-29 16:41:00,
2013-06-29 19:11:00,75.9,50.2,29.32,West,270,3.1,4.5,31,0.00,,,0.00,fowsr,2013-06-29 17:11:00,
2013-06-29 19:41:00,76.1,50.3,29.33,East,90,1.6,2.2,31,0.00,,,0.00,fowsr,2013-06-29 17:41:00,
2013-06-29 20:11:00,70.3,55.5,29.34,NE,45,0.7,1.6,51,0.00,,,0.00,fowsr,2013-06-29 18:11:00,
2013-06-29 20:41:00,67.3,55.4,29.34,North,0,0.0,0.7,58,0.00,,,0.00,fowsr,2013-06-29 18:41:00,
2013-06-29 21:11:00,65.7,55.3,29.35,NW,315,1.6,3.1,62,0.00,,,0.00,fowsr,2013-06-29 19:11:00,
2013-06-29 21:41:00,64.2,53.6,29.36,NW,315,2.2,3.8,61,0.00,,,0.00,fowsr,2013-06-29 19:41:00,
2013-06-29 22:11:00,64.4,52.8,29.36,NW,315,1.6,2.2,58,0.00,,,0.00,fowsr,2013-06-29 20:11:00,
2013-06-29 22:41:00,63.5,52.3,29.36,West,270,3.8,5.4,59,0.00,,,0.00,fowsr,2013-06-29 20:41:00,
2013-06-29 23:11:00,62.4,52.3,29.37,NW,315,1.6,3.1,62,0.00,,,0.00,fowsr,2013-06-29 21:11:00,
2013-06-29 23:41:00,62.2,54.3,29.37,NE,45,0.7,2.2,69,0.00,,,0.00,fowsr,2013-06-29 21:41:00,